User: anonymous   Login
Location: Albany
(35.0000°S, 118.0000°E)
Time: 08:44:10
(UTC-04:00)
Language:

Cosmos 2227 Rocket - Orbit

View from above orbital plane
View from above orbital plane
View from above satellite
View from above satellite

Ground track
Ground track

The orbit data is extracted from the following two-line orbital elements,

1 22285U 92093B   14295.94848684  .00000245  00000-0  15150-3 0  4355
2 22285 071.0227 083.3274 0003898 196.7069 163.3926 14.14929354125575
Epoch (UTC): 22 October 2014 22:45:49
Eccentricity: 0.0003898
inclination: 71.0227°
perigee height: 840 km
apogee height: 845 km
right ascension of ascending node: 83.3274°
argument of perigee: 196.7069°
revolutions per day: 14.14929354
mean anomaly at epoch: 163.3926°
orbit number at epoch: 12557

The dashed part of the orbit path shows where the satellite is in the earth's shadow,  

DLR